Preview of NWS' New Version of Forecast
This preview is not operational and should not be used for support decisions.

Regional Weather Roundup (RWR)

Issued by National Weather Service (NWS)

                            
000
ASUS43 KLSX 181457
RWRMO 

WEATHER SUMMARY FOR MISSOURI
NATIONAL WEATHER SERVICE SPRINGFIELD MO
1000 AM CDT THU APR 18 2019

NOTE: "FAIR" INDICATES FEW OR NO CLOUDS BELOW 12,000 FEET WITH NO
       SIGNIFICANT WEATHER AND/OR OBSTRUCTIONS TO VISIBILITY.
       CURRENT SKY AND/OR WEATHER CONDITIONS ARE NOT AVAILABLE FOR
       CHILLICOTHE AND FARMINGTON.

MOZ001>031-035>038-043-044-053-054-181600-
...NORTHERN AND WESTERN MISSOURI...
  
CITY           SKY/WX    TMP DP  RH WIND       PRES   REMARKS
KANSAS CTY INT PTSUNNY   52  41  66 N18G30    29.85F                  
LEE'S SUMMIT   CLOUDY    51  41  68 N17G30    29.84F                  
ST JOSEPH      PTSUNNY   52  41  66 N20       29.89S                  
CHILLICOTHE      N/A     49  40  71 N12G20    29.83F                  
     
$$
MOZ066>068-077>081-088>096-101>105-181600-
...SOUTHWEST MISSOURI...
  
CITY           SKY/WX    TMP DP  RH WIND       PRES   REMARKS
SPRINGFIELD    CLOUDY    51  48  89 N14       29.78R                  
JOPLIN         CLOUDY    52  45  77 N22G31    29.84R                  
BRANSON        CLOUDY    57  57 100 NW10      29.73S FOG              
               
$$
MOZ032>034-039>042-045>050-055>058-069>072-181600-
...CENTRAL MISSOURI...  
  
CITY           SKY/WX    TMP DP  RH WIND       PRES   REMARKS
COLUMBIA       NOT AVBL                                               
JEFFERSON CITY CLOUDY    50  43  77 NW10      29.78R                  
ROLLA          CLOUDY    50  48  93 NW15      29.73R FOG              
SEDALIA        CLOUDY    47  44  90 NW13      29.82R                  
WARRENSBURG    CLOUDY    48  41  76 NW13G20   29.83R                  
               
$$
MOZ051-052-059>065-181600-
...EAST CENTRAL MISSOURI...
  
CITY           SKY/WX    TMP DP  RH WIND       PRES   REMARKS
ST LOUIS INTL  DRIZZLE   53  50  89 NW15G22   29.71R FOG              
                   
$$
MOZ072>076-082>087-097>100-106>115-181600-
...SOUTH CENTRAL AND SOUTHEAST MISSOURI...
  
CITY           SKY/WX    TMP DP  RH WIND       PRES   REMARKS
CAPE GIRARDEAU LGT RAIN  63  60  90 S14       29.74R                  
POPLAR BLUFF   LGT RAIN  61  61 100 S7G18     29.73F FOG              
WEST PLAINS    CLOUDY    61  59  93 SW7       29.73R                  
                                       
$$